Temp
69 71 70 70 70 70 69 69 69 69 70 71 72 71 71 71 71 70 69 63 63 63 64 65 66 66 66 67 67 66 66 66 66 66 66 66 66 66 66 66 66 67 67
70 71 71 70 70 70 69 69 68 67 68 70 70 71 70 70 71 70 69 66 63 63 64 64 65 65 65 66 66 66 66 65 66 66 65 66 66 66 66 66 66 66 66
71 71 70 69 70 70 68 67 68 68 67 68 69 70 70 70 70 70 69 68 67 63 63 63 64 64 65 65 65 65 65 65 65 65 66 66 66 66 66 66 66 66 66
71 70 69 69 70 68 67 67 67 66 66 67 67 69 70 70 70 70 69 68 67 67 63 63 63 64 64 65 65 65 65 65 65 65 65 66 66 66 66 66 65 65 66
71 69 69 69 70 68 66 65 65 65 64 65 66 68 69 68 69 70 69 68 66 66 66 66 63 63 63 64 64 65 65 65 65 64 65 65 66 66 65 65 65 65 66
71 69 69 69 69 67 65 65 64 65 64 63 65 65 66 67 68 67 67 68 67 65 64 63 63 61 63 63 64 64 65 65 65 64 64 65 65 65 66 65 65 65 65
71 69 68 68 68 66 66 66 65 63 62 64 61 62 66 69 69 68 67 66 66 66 65 63 62 62 64 63 63 63 64 65 65 65 64 65 65 65 65 65 65 65 65
70 70 68 67 68 66 65 64 64 61 62 64 59 59 56 64 67 67 67 65 66 66 65 65 64 63 62 62 62 63 62 63 64 64 64 64 65 65 65 65 65 65 64
71 69 69 68 68 67 64 64 63 61 58 63 64 58 55 56 60 66 64 63 63 63 64 64 64 64 64 63 63 62 61 61 62 63 64 64 64 65 65 65 65 64 65
71 70 69 69 68 68 66 65 66 63 61 57 62 63 62 61 55 54 64 63 63 62 62 62 63 63 64 62 62 62 63 62 61 61 63 63 63 64 65 65 65 64 64
71 70 70 69 68 68 68 67 66 64 63 60 59 61 60 59 60 55 51 58 63 62 62 62 62 62 63 62 61 61 63 61 60 60 61 62 62 63 64 65 65 64 63
70 70 69 69 69 68 67 66 66 65 64 62 61 61 60 58 56 55 53 55 56 60 63 62 61 61 61 61 61 62 62 62 60 59 60 60 61 62 62 63 64 64 63
69 69 69 67 66 66 66 67 65 64 64 62 62 61 61 61 61 60 58 56 55 59 61 62 61 60 61 60 60 60 60 60 60 59 59 60 60 60 61 61 63 63 63
71 71 70 68 67 67 66 65 64 63 64 62 61 61 61 61 62 60 57 55 52 54 57 57 59 59 60 61 60 60 58 59 58 58 59 59 59 59 59 60 61 61 62
69 69 69 68 67 66 66 65 63 63 63 62 62 61 60 61 61 61 60 59 54 47 50 57 57 60 59 60 60 59 56 58 58 58 58 58 59 59 59 59 60 60 61
69 67 66 66 65 65 66 64 63 63 62 62 62 61 61 61 60 60 59 59 58 54 49 56 57 58 59 60 60 59 57 58 57 59 58 58 58 58 58 59 59 59 59
69 68 67 66 65 65 65 64 63 63 62 62 62 61 60 61 60 60 59 58 56 55 50 54 57 59 59 56 58 58 57 56 56 58 58 58 57 57 57 57 57 58 58
71 69 68 67 66 66 65 64 63 64 63 61 61 60 59 61 58 59 58 57 56 56 52 49 54 55 56 57 58 55 56 58 57 59 59 57 57 57 57 56 56 57 57
72 71 69 67 66 66 65 64 64 64 64 63 62 61 61 60 58 58 57 56 56 57 55 52 51 55 55 56 55 54 53 54 56 57 57 58 57 57 56 56 55 55 55
71 70 70 69 66 66 65 64 64 63 63 63 62 62 62 61 60 59 58 57 57 54 54 52 51 51 52 54 53 50 47 48 47 52 54 55 57 55 55 55 55 55 54
70 70 69 68 67 65 65 64 63 61 61 61 61 62 62 61 60 60 59 57 56 54 53 51 50 50 49 49 47 46 44 44 45 47 47 49 51 50 51 54 54 54 54
69 69 68 67 65 65 61 58 57 58 59 59 59 60 61 60 60 59 58 58 56 54 53 51 50 48 50 49 47 45 43 41 38 45 44 44 48 46 49 50 53 54 54
69 68 67 66 64 65 60 59 57 57 56 57 58 59 59 61 59 59 59 58 56 56 56 52 49 50 48 49 46 36 38 39 40 41 42 39 44 43 48 50 52 53 53
67 65 64 64 63 63 59 58 56 56 57 58 59 59 59 59 60 58 57 55 55 56 55 55 53 53 52 51 48 46 42 38 41 41 41 36 40 41 44 46 51 53 52
64 64 64 62 62 62 58 57 55 57 58 59 61 61 60 59 58 57 54 52 52 53 57 57 56 55 55 53 52 47 41 38 36 36 39 38 38 40 42 42 47 52 50
63 63 61 62 61 61 59 55 54 55 56 58 59 60 57 56 57 55 52 51 49 50 52 51 49 50 51 50 52 50 46 39 38 35 39 36 37 38 36 42 44 46 45
MSLP
1024.71 1024.51 1024.48 1024.45 1024.43 1024.41 1024.34 1024.26 1024.18 1024.09 1023.83 1023.47 1023.39 1023.23 1023.02 1022.83 1022.86 1022.90 1022.92 1023.34 1023.50 1023.41 1023.24 1023.01 1022.87 1022.77 1022.63 1022.36 1022.22 1022.21 1022.21 1022.13 1022.00 1021.83 1021.65 1021.57 1021.49 1021.33 1021.15 1021.03 1020.77 1020.64 1020.44
1024.40 1024.25 1024.19 1024.24 1024.25 1024.17 1024.20 1024.10 1024.01 1023.99 1023.82 1023.48 1023.16 1023.00 1022.82 1022.67 1022.59 1022.62 1022.68 1022.83 1023.24 1023.32 1023.16 1022.96 1022.77 1022.66 1022.61 1022.48 1022.29 1022.07 1022.06 1022.11 1022.00 1021.85 1021.76 1021.57 1021.42 1021.29 1021.16 1021.03 1020.80 1020.66 1020.44
1024.00 1023.99 1024.07 1023.99 1024.03 1023.99 1024.18 1024.18 1023.91 1023.74 1023.63 1023.31 1023.01 1022.65 1022.39 1022.31 1022.24 1022.18 1022.24 1022.34 1022.30 1022.76 1023.01 1023.03 1022.85 1022.64 1022.43 1022.31 1022.18 1022.10 1021.98 1021.93 1021.86 1021.74 1021.64 1021.49 1021.32 1021.15 1021.05 1020.86 1020.72 1020.57 1020.36
1023.83 1023.94 1023.86 1023.77 1023.80 1023.92 1024.02 1023.96 1023.81 1023.69 1023.47 1023.07 1022.69 1022.30 1022.02 1021.85 1021.69 1021.62 1021.68 1021.79 1021.96 1021.97 1022.35 1022.47 1022.65 1022.70 1022.61 1022.45 1022.29 1022.09 1022.00 1021.88 1021.77 1021.61 1021.41 1021.27 1021.19 1021.06 1020.90 1020.78 1020.65 1020.54 1020.36
1023.39 1023.55 1023.52 1023.43 1023.43 1023.54 1023.75 1023.75 1023.49 1023.43 1023.22 1022.79 1022.41 1021.99 1021.68 1021.40 1021.20 1021.04 1021.03 1021.15 1021.53 1021.74 1021.83 1021.78 1022.23 1022.34 1022.31 1022.25 1022.22 1022.06 1021.93 1021.83 1021.71 1021.65 1021.37 1021.16 1020.98 1020.89 1020.80 1020.71 1020.54 1020.43 1020.20
1022.93 1023.11 1023.06 1022.98 1023.03 1023.11 1023.27 1023.25 1023.22 1023.08 1022.91 1022.79 1022.43 1021.90 1021.50 1021.09 1020.91 1020.85 1020.83 1020.85 1021.03 1021.35 1021.62 1021.68 1021.71 1021.94 1021.85 1021.90 1021.83 1021.71 1021.65 1021.61 1021.49 1021.44 1021.34 1021.10 1020.80 1020.64 1020.49 1020.42 1020.34 1020.25 1020.11
1022.18 1022.40 1022.48 1022.45 1022.42 1022.57 1022.57 1022.67 1022.71 1022.66 1022.64 1022.53 1022.28 1021.77 1020.77 1020.16 1020.04 1020.18 1020.42 1020.62 1020.51 1020.59 1020.93 1021.23 1021.31 1021.28 1021.17 1021.25 1021.38 1021.33 1021.15 1021.10 1021.09 1021.05 1021.10 1020.89 1020.66 1020.44 1020.26 1020.09 1019.99 1019.94 1019.77
1021.49 1021.61 1021.75 1021.82 1021.87 1021.93 1022.11 1022.30 1022.30 1022.35 1022.27 1022.33 1022.10 1021.72 1020.60 1019.63 1019.54 1019.85 1019.96 1020.16 1020.07 1019.96 1020.15 1020.29 1020.39 1020.50 1020.46 1020.42 1020.36 1020.35 1020.57 1020.66 1020.65 1020.56 1020.62 1020.58 1020.37 1020.22 1020.02 1019.91 1019.81 1019.66 1019.63
1020.76 1020.97 1021.04 1021.06 1021.10 1021.21 1021.37 1021.63 1021.81 1021.96 1021.89 1021.66 1021.77 1021.88 1020.89 1019.90 1019.48 1019.00 1019.44 1019.63 1019.77 1019.79 1019.65 1019.57 1019.62 1019.57 1019.62 1019.61 1019.70 1019.73 1019.88 1020.00 1020.00 1019.97 1020.00 1020.05 1020.02 1019.80 1019.68 1019.59 1019.50 1019.47 1019.31
1020.04 1020.26 1020.43 1020.47 1020.46 1020.44 1020.65 1020.78 1020.93 1021.09 1021.47 1021.50 1021.36 1021.15 1021.35 1021.14 1020.33 1019.37 1018.84 1019.04 1019.17 1019.20 1019.23 1019.30 1019.41 1019.26 1019.13 1019.17 1019.12 1019.06 1019.00 1019.17 1019.46 1019.38 1019.27 1019.32 1019.37 1019.31 1019.17 1019.14 1019.08 1019.05 1019.02
1019.44 1019.61 1019.61 1019.73 1019.81 1019.80 1019.76 1019.88 1020.06 1020.36 1020.68 1020.81 1020.73 1020.68 1020.63 1020.60 1020.46 1019.98 1018.97 1018.44 1018.11 1018.31 1018.47 1018.44 1018.26 1018.19 1018.27 1018.28 1018.25 1018.28 1018.37 1018.61 1018.81 1018.93 1019.01 1018.81 1018.74 1018.78 1018.58 1018.48 1018.46 1018.53 1018.67
1018.72 1018.71 1019.09 1019.13 1019.01 1018.96 1018.99 1019.05 1019.25 1019.50 1019.63 1019.93 1020.09 1020.15 1019.98 1019.83 1019.71 1019.52 1018.91 1018.36 1018.10 1017.80 1017.57 1017.63 1017.87 1018.02 1017.93 1017.75 1017.59 1017.58 1017.54 1017.69 1018.03 1018.26 1018.24 1018.41 1018.39 1018.29 1018.34 1018.12 1017.88 1017.92 1018.07
1017.89 1017.96 1018.11 1018.37 1018.49 1018.55 1018.55 1018.53 1018.62 1018.66 1018.90 1019.04 1019.09 1019.14 1019.16 1018.73 1018.65 1018.50 1018.25 1017.72 1017.46 1017.01 1016.78 1016.62 1016.94 1017.28 1017.36 1017.35 1017.28 1017.23 1017.26 1017.35 1017.46 1017.58 1017.59 1017.68 1017.78 1017.85 1017.81 1017.74 1017.56 1017.41 1017.55
1017.28 1017.16 1017.29 1017.48 1017.74 1017.90 1018.00 1018.13 1018.21 1018.20 1018.26 1018.21 1018.36 1018.30 1018.08 1017.86 1017.75 1017.69 1017.61 1017.58 1016.88 1016.57 1016.29 1015.94 1016.14 1016.27 1016.45 1016.51 1016.39 1016.69 1016.82 1016.79 1016.87 1016.96 1017.09 1017.03 1017.08 1017.03 1017.19 1017.17 1017.08 1016.99 1016.96
1016.91 1016.80 1016.86 1017.06 1017.07 1017.13 1017.21 1017.39 1017.48 1017.42 1017.52 1017.49 1017.39 1017.46 1017.38 1017.18 1017.19 1017.09 1017.10 1017.09 1016.80 1016.13 1015.70 1015.50 1015.38 1015.34 1015.86 1015.82 1015.92 1016.10 1016.48 1016.52 1016.44 1016.42 1016.52 1016.51 1016.43 1016.47 1016.42 1016.38 1016.49 1016.36 1016.23
1016.34 1016.44 1016.58 1016.54 1016.47 1016.51 1016.56 1016.61 1016.55 1016.56 1016.67 1016.63 1016.58 1016.57 1016.30 1016.18 1016.44 1016.42 1016.26 1016.43 1016.53 1016.20 1015.23 1015.40 1015.09 1014.91 1014.97 1015.00 1014.93 1015.07 1015.43 1015.67 1015.82 1015.76 1015.80 1015.92 1015.99 1015.86 1015.75 1015.71 1015.70 1015.66 1015.69
1015.73 1015.75 1015.77 1015.77 1015.79 1015.73 1015.79 1015.82 1015.88 1016.02 1016.05 1015.95 1015.80 1015.65 1015.48 1015.70 1015.59 1015.39 1015.39 1015.36 1015.51 1015.76 1015.13 1014.62 1014.65 1014.32 1014.03 1013.88 1014.09 1014.34 1014.61 1014.88 1014.91 1015.00 1014.93 1014.93 1015.12 1015.23 1015.07 1015.03 1014.98 1015.09 1014.97
1015.09 1015.12 1015.13 1015.13 1015.09 1015.11 1015.25 1015.29 1015.23 1015.27 1015.23 1015.12 1015.05 1015.10 1014.77 1014.87 1014.85 1014.86 1014.93 1015.02 1014.97 1014.85 1014.86 1013.94 1013.82 1013.55 1013.56 1013.55 1013.36 1013.66 1013.75 1013.71 1013.86 1013.84 1013.92 1014.27 1014.17 1014.14 1014.25 1014.32 1014.29 1014.41 1014.36
1014.45 1014.49 1014.53 1014.54 1014.75 1014.93 1014.97 1014.86 1014.79 1014.61 1014.45 1014.38 1014.25 1014.04 1013.91 1013.97 1013.87 1014.13 1014.41 1014.09 1014.02 1013.89 1013.91 1013.85 1013.08 1013.39 1013.24 1013.13 1013.13 1013.12 1013.23 1013.25 1013.07 1013.09 1013.26 1013.07 1013.24 1013.18 1013.24 1013.39 1013.39 1013.55 1013.66
1014.12 1014.11 1014.09 1014.15 1014.27 1014.40 1014.39 1014.31 1014.12 1014.03 1013.88 1013.59 1013.44 1013.18 1013.01 1013.01 1013.01 1012.86 1012.69 1012.84 1012.96 1013.13 1013.13 1013.12 1013.03 1012.91 1012.73 1012.59 1012.57 1012.61 1012.95 1013.01 1013.04 1012.92 1012.75 1012.44 1012.31 1012.31 1012.35 1012.36 1012.47 1012.59 1012.75
1013.77 1013.68 1013.65 1013.64 1013.66 1013.70 1013.67 1013.57 1013.62 1013.41 1013.17 1012.97 1012.73 1012.56 1012.43 1012.44 1012.28 1012.10 1012.09 1011.89 1011.99 1012.11 1012.31 1012.37 1012.09 1012.07 1012.09 1012.29 1012.41 1012.63 1012.54 1012.57 1012.54 1012.61 1012.34 1011.94 1011.88 1011.60 1012.02 1011.53 1011.37 1011.56 1011.89
1013.34 1013.24 1013.22 1013.13 1013.11 1013.12 1012.94 1013.13 1013.31 1013.29 1013.15 1012.80 1012.37 1011.94 1011.60 1011.22 1011.02 1011.13 1011.33 1011.71 1011.90 1011.60 1011.41 1011.61 1011.60 1011.45 1011.34 1011.43 1011.55 1011.84 1012.04 1012.36 1012.12 1011.73 1011.71 1011.40 1011.49 1011.38 1011.22 1010.93 1010.81 1010.82 1011.04
1012.88 1012.81 1012.82 1012.72 1012.55 1012.54 1012.58 1012.77 1013.00 1013.04 1012.66 1012.16 1011.67 1011.07 1010.70 1010.56 1010.54 1010.73 1010.84 1010.80 1010.82 1011.06 1011.10 1011.33 1011.00 1011.00 1010.82 1010.56 1010.88 1011.29 1011.46 1011.47 1011.35 1011.19 1011.28 1011.00 1011.00 1010.88 1010.70 1010.62 1010.29 1010.43 1010.56
1012.51 1012.42 1012.46 1012.49 1012.34 1012.13 1012.07 1012.21 1012.33 1012.30 1011.82 1011.20 1010.90 1010.68 1010.33 1010.11 1010.09 1010.08 1010.10 1010.30 1010.32 1010.09 1009.92 1010.20 1010.14 1009.81 1009.72 1009.95 1010.16 1010.20 1010.49 1010.72 1010.76 1010.78 1010.83 1010.74 1010.63 1010.18 1010.15 1010.06 1009.86 1009.80 1010.05
1012.35 1012.27 1012.24 1012.20 1011.98 1011.79 1011.86 1011.91 1011.89 1011.45 1010.92 1010.54 1010.28 1010.03 1009.95 1009.74 1009.70 1009.84 1009.86 1009.95 1009.82 1009.57 1009.41 1009.27 1009.18 1009.23 1009.20 1009.41 1009.60 1009.57 1009.75 1009.98 1010.04 1010.12 1010.25 1010.23 1010.06 1009.77 1009.62 1009.54 1009.37 1009.13 1009.40
1012.18 1012.13 1012.00 1011.88 1011.57 1011.49 1011.42 1011.56 1011.75 1011.55 1010.88 1010.32 1009.87 1009.60 1009.54 1009.57 1009.54 1009.85 1009.74 1009.24 1009.09 1008.96 1009.04 1008.87 1009.13 1008.97 1008.65 1008.65 1008.72 1008.85 1008.87 1009.08 1009.27 1009.33 1009.35 1009.79 1009.45 1009.53 1009.23 1008.56 1008.59 1008.62 1008.98
Wind_Speed
4 3 4 3 3 3 4 4 4 4 6 6 6 6 6 6 6 4 3 8 6 6 5 5 5 4 5 6 5 5 6 8 9 8 8 8 9 9 8 10 9 7 7
4 4 4 4 4 4 4 4 4 5 5 6 7 7 7 7 7 7 5 5 10 9 8 7 6 5 5 6 7 6 4 6 8 8 9 7 5 8 8 9 9 9 10
6 6 5 5 5 4 5 6 6 5 6 6 8 8 7 9 8 9 7 6 7 13 11 10 9 8 8 8 8 7 7 7 7 8 8 8 8 7 8 9 9 10 10
8 7 6 6 5 5 5 6 5 6 6 7 7 7 7 8 10 10 7 6 6 6 11 13 11 11 11 11 11 10 9 9 8 9 9 8 8 8 8 10 8 8 10
9 8 7 7 7 5 6 6 6 6 7 7 7 7 8 7 8 8 9 8 8 7 5 10 13 12 12 12 12 13 11 10 11 11 10 9 10 9 9 8 8 8 9
10 9 8 8 7 6 7 6 8 7 7 7 8 9 8 8 7 7 8 8 7 8 8 8 5 8 16 13 13 14 14 13 13 12 13 10 11 10 10 10 9 8 9
11 10 8 9 8 8 9 8 7 8 6 7 7 8 8 10 10 7 6 7 8 8 8 8 6 6 6 16 14 14 15 15 15 15 14 13 13 12 11 10 10 11 11
12 11 11 9 10 7 9 9 8 6 7 6 5 6 5 3 3 6 6 6 9 7 8 10 10 10 8 6 9 15 15 15 16 16 15 15 14 14 13 11 12 12 11
12 12 12 11 10 9 7 8 8 9 7 6 8 5 3 3 6 4 7 6 7 6 7 9 10 11 11 9 11 11 16 18 17 17 16 16 16 16 15 13 13 13 13
12 12 13 12 12 8 10 9 9 9 8 8 6 8 10 8 4 5 4 6 7 8 9 7 9 10 11 8 11 13 13 15 17 18 18 17 17 18 17 15 15 14 13
10 12 13 13 12 10 10 11 10 10 8 9 8 7 7 7 9 8 9 7 7 8 8 8 9 9 10 10 9 12 17 19 19 19 19 18 17 18 18 18 17 15 14
7 11 11 11 11 11 12 10 11 12 10 10 9 9 8 7 7 8 10 11 11 10 7 7 8 8 8 9 11 16 17 19 19 20 20 19 18 18 18 19 18 16 15
7 8 10 10 9 11 11 10 11 12 11 11 12 9 9 10 9 9 10 10 10 8 7 6 7 7 8 8 9 14 16 21 20 21 21 20 18 18 18 18 20 18 16
7 7 7 9 10 11 10 11 9 10 11 11 14 12 10 10 10 10 11 10 11 10 10 13 5 7 7 8 10 15 10 20 21 22 22 20 19 18 18 19 19 19 18
7 8 8 8 9 10 11 10 9 11 11 11 12 13 12 10 10 10 10 10 10 11 11 10 8 8 6 7 7 7 9 15 21 22 22 21 20 20 19 20 21 20 20
8 8 8 9 9 10 10 11 10 11 12 10 9 13 13 10 11 10 10 10 10 11 14 6 7 4 7 7 7 8 9 15 20 22 23 23 22 22 21 21 21 20 20
8 9 9 9 10 11 11 10 12 11 12 12 12 13 15 12 10 10 10 10 10 9 13 10 9 10 12 10 10 8 8 9 9 21 24 23 23 25 24 23 21 23 20
8 9 9 9 10 10 10 11 11 11 12 13 13 13 15 10 14 13 10 11 11 11 11 17 12 10 12 8 9 11 9 9 10 16 21 24 26 24 25 25 23 23 22
8 8 8 9 9 9 9 10 11 12 12 13 13 13 13 13 13 10 11 11 11 10 11 11 13 8 9 8 8 8 9 10 9 14 21 24 24 24 25 25 22 22 20
9 9 8 8 7 8 9 10 10 11 12 12 13 13 13 13 13 13 13 13 12 11 11 10 10 10 9 8 8 8 6 6 8 9 15 20 19 20 24 26 24 22 20
8 8 8 7 7 7 7 9 9 11 12 12 12 12 13 14 19 17 10 11 11 10 9 9 10 9 8 7 7 4 7 7 7 7 8 7 7 7 11 21 20 21 21
8 7 7 7 7 6 9 9 9 9 11 12 12 12 13 15 16 21 21 22 17 11 12 10 10 10 11 6 6 8 8 7 7 6 8 9 7 8 8 7 16 19 19
7 6 6 7 8 8 7 8 10 9 10 11 13 12 11 9 9 10 12 18 21 24 23 14 14 12 12 11 4 4 8 8 10 4 4 6 4 7 7 7 16 17 17
6 6 6 6 7 7 7 7 8 9 10 13 13 13 12 12 9 9 9 9 10 10 12 11 15 17 14 12 7 8 10 10 8 4 5 6 4 7 6 6 18 17 17
5 6 5 7 8 8 6 5 6 9 9 10 10 10 9 10 10 8 7 9 10 11 9 14 17 18 20 20 18 7 7 6 6 4 7 5 4 7 5 6 8 14 15
6 5 7 7 8 8 7 3 5 7 8 7 8 7 7 8 10 10 8 9 10 10 9 6 7 11 14 14 21 13 6 7 7 2 6 7 5 4 3 7 7 4 6
Wind_Direction
259 263 250 244 251 260 262 273 277 286 278 286 286 268 272 259 249 247 255 179 225 259 278 291 306 324 318 325 333 342 339 344 337 338 348 350 345 344 336 342 351 342 335
256 249 255 252 260 253 270 268 282 285 284 279 279 276 269 268 260 252 248 200 212 245 259 265 273 284 304 312 309 313 308 325 322 327 338 323 337 336 338 334 344 339 337
253 256 259 259 259 271 264 266 262 264 268 266 269 266 266 264 262 256 246 248 208 217 240 259 264 272 278 281 286 293 292 288 300 320 310 317 324 328 330 323 326 328 331
240 250 258 260 253 257 262 269 271 274 273 270 273 273 270 258 257 255 251 246 237 252 208 229 243 263 274 274 275 274 278 276 284 296 291 296 305 313 322 314 341 327 318
236 238 248 251 251 245 248 253 259 260 271 277 274 271 273 269 263 258 251 235 234 246 251 225 225 246 260 264 271 268 268 267 274 278 283 277 284 301 298 307 311 319 309
234 237 244 245 250 243 245 247 252 261 267 280 288 286 279 266 258 256 262 252 239 223 231 255 221 228 238 248 259 264 264 268 265 263 275 277 279 286 288 298 301 297 308
230 230 236 243 236 238 244 244 249 253 254 257 273 274 257 259 247 231 230 247 246 231 223 231 233 246 253 228 243 254 256 261 265 261 263 270 274 273 280 283 291 297 296
231 230 228 233 236 237 235 244 248 253 257 252 266 300 288 312 206 244 229 240 244 234 227 229 230 233 235 243 227 231 243 256 263 262 257 264 267 270 275 286 279 288 289
229 227 232 231 233 232 235 234 232 233 248 250 225 250 292 260 345 224 218 228 241 250 243 237 236 235 237 233 235 235 234 242 248 253 254 256 263 264 266 273 277 282 288
234 230 233 233 238 232 230 232 231 229 227 247 256 218 250 280 283 307 207 219 221 231 240 236 245 247 244 244 241 243 242 240 242 246 246 249 256 263 266 265 271 277 285
233 235 232 236 237 236 238 233 230 230 225 234 238 247 222 237 254 257 272 266 227 214 223 235 236 234 236 238 236 242 243 240 244 245 248 246 251 258 263 265 264 269 276
235 232 237 241 241 239 235 234 236 235 230 229 236 239 245 239 228 239 252 260 260 261 252 218 228 244 249 248 244 246 240 243 240 240 240 246 252 257 263 266 265 264 272
237 234 228 232 240 242 247 243 238 235 232 234 234 233 236 239 241 251 259 260 262 265 264 226 228 247 247 247 249 248 246 245 244 237 237 239 248 257 260 265 268 266 265
258 256 239 226 240 245 240 238 244 242 241 238 237 236 239 239 235 234 245 258 266 262 249 256 209 231 237 246 243 241 244 244 241 237 236 238 244 247 258 264 263 264 262
261 261 257 254 244 241 244 238 238 240 236 237 240 236 240 244 243 244 241 243 251 267 264 256 265 202 225 247 240 228 240 245 242 237 235 238 241 247 252 254 259 258 262
248 250 251 247 246 247 241 236 238 239 241 241 236 238 242 239 240 242 241 245 247 259 271 269 266 242 212 227 236 215 234 236 242 242 236 240 245 248 251 255 256 257 260
258 254 248 243 244 242 241 240 239 242 244 244 240 242 246 246 245 243 239 239 244 248 260 264 259 253 255 227 233 233 222 245 240 246 249 244 246 250 254 255 255 256 254
259 255 255 255 252 247 245 245 248 245 245 246 248 246 248 242 247 248 248 248 245 240 251 263 255 257 256 256 245 229 236 243 240 249 250 251 253 252 253 254 254 254 253
269 262 256 254 262 265 259 254 254 255 254 255 252 251 253 245 248 244 243 243 245 247 247 258 267 265 257 251 259 232 232 247 252 260 260 261 257 256 252 252 251 250 250
282 277 271 271 269 267 263 261 259 261 262 259 260 257 256 254 252 248 242 243 243 241 244 251 262 265 258 253 242 245 243 239 251 250 253 259 253 254 258 252 250 247 245
282 281 282 279 272 260 257 257 257 255 259 264 264 262 258 253 255 255 259 251 246 247 245 248 254 261 262 260 245 245 242 248 252 250 261 263 260 251 255 256 248 245 244
282 277 272 272 271 262 263 246 246 268 281 281 275 268 264 259 252 248 252 259 260 261 256 246 253 262 268 253 227 222 235 241 266 207 236 248 244 253 253 240 245 246 242
285 289 284 279 277 279 273 268 252 263 267 267 268 270 269 268 265 267 266 265 257 257 254 259 265 266 273 254 232 224 232 229 242 236 214 240 224 240 250 250 256 257 240
286 287 286 282 284 282 268 257 254 267 261 262 267 275 277 280 277 282 278 268 270 262 244 242 245 254 258 268 254 237 228 234 256 240 193 253 221 242 237 238 251 241 238
288 291 296 291 286 294 314 283 277 284 280 283 282 280 282 288 292 288 267 276 275 270 266 254 256 267 271 272 268 267 234 216 242 227 197 233 223 239 213 225 247 222 224
280 282 289 285 286 287 305 8 326 302 294 300 299 294 279 264 276 290 286 276 277 277 279 274 272 267 266 263 266 260 260 222 229 237 195 199 202 196 240 217 219 223 196